QPF
0.00 0.00 0.00 0.00 0.00 0.00 0.00 0.00 0.00 0.00 0.00 0.00 0.00 0.01 0.03 0.06 0.09 0.11 0.13 0.13 0.11 0.09 0.06 0.03 0.01 0.01 0.00 0.00 0.00 0.00 0.00 0.01 0.01 0.01 0.01 0.01 0.01 0.01 0.01 0.02 0.02 0.02 0.02
0.00 0.00 0.00 0.00 0.00 0.00 0.00 0.00 0.00 0.00 0.00 0.00 0.00 0.00 0.00 0.02 0.05 0.10 0.15 0.18 0.17 0.14 0.11 0.07 0.04 0.03 0.01 0.00 0.00 0.00 0.00 0.00 0.01 0.01 0.01 0.02 0.02 0.02 0.01 0.02 0.02 0.02 0.01
0.00 0.00 0.00 0.00 0.00 0.00 0.00 0.00 0.00 0.00 0.00 0.00 0.00 0.00 0.00 0.00 0.01 0.03 0.08 0.13 0.18 0.20 0.18 0.13 0.09 0.06 0.03 0.02 0.01 0.00 0.00 0.00 0.01 0.01 0.01 0.02 0.04 0.04 0.03 0.03 0.03 0.02 0.01
0.00 0.00 0.00 0.00 0.00 0.00 0.00 0.00 0.00 0.00 0.00 0.00 0.00 0.00 0.00 0.00 0.00 0.00 0.01 0.04 0.09 0.14 0.18 0.19 0.17 0.11 0.07 0.04 0.02 0.01 0.00 0.00 0.01 0.02 0.02 0.03 0.06 0.06 0.04 0.04 0.04 0.03 0.02
0.00 0.00 0.00 0.00 0.00 0.00 0.00 0.00 0.00 0.00 0.00 0.00 0.00 0.00 0.00 0.00 0.00 0.00 0.00 0.01 0.02 0.05 0.10 0.13 0.16 0.18 0.14 0.08 0.03 0.01 0.00 0.00 0.01 0.02 0.03 0.04 0.06 0.08 0.07 0.05 0.04 0.04 0.03
0.00 0.00 0.00 0.00 0.00 0.00 0.00 0.00 0.00 0.00 0.00 0.00 0.00 0.00 0.00 0.00 0.00 0.00 0.00 0.00 0.00 0.01 0.03 0.07 0.10 0.13 0.13 0.12 0.07 0.03 0.01 0.00 0.01 0.02 0.03 0.03 0.04 0.04 0.03 0.02 0.03 0.03 0.04
0.00 0.00 0.00 0.00 0.00 0.01 0.01 0.01 0.00 0.00 0.00 0.00 0.00 0.00 0.00 0.00 0.00 0.00 0.00 0.00 0.00 0.00 0.01 0.02 0.05 0.09 0.10 0.09 0.08 0.05 0.02 0.01 0.00 0.01 0.02 0.02 0.03 0.02 0.02 0.02 0.03 0.02 0.02
0.00 0.00 0.00 0.01 0.01 0.01 0.01 0.01 0.01 0.01 0.01 0.00 0.00 0.00 0.00 0.00 0.00 0.00 0.00 0.00 0.00 0.00 0.00 0.01 0.02 0.05 0.07 0.08 0.07 0.05 0.03 0.02 0.01 0.01 0.02 0.03 0.03 0.03 0.03 0.03 0.03 0.03 0.02
0.00 0.01 0.01 0.02 0.02 0.03 0.04 0.03 0.03 0.03 0.02 0.01 0.01 0.00 0.00 0.00 0.00 0.00 0.00 0.00 0.00 0.00 0.00 0.01 0.02 0.03 0.06 0.07 0.07 0.04 0.03 0.03 0.02 0.02 0.04 0.06 0.07 0.07 0.06 0.05 0.05 0.04 0.03
0.01 0.01 0.02 0.03 0.05 0.06 0.07 0.08 0.07 0.06 0.04 0.02 0.01 0.01 0.00 0.00 0.00 0.00 0.00 0.00 0.00 0.00 0.00 0.02 0.04 0.05 0.07 0.07 0.07 0.05 0.02 0.02 0.03 0.03 0.06 0.10 0.10 0.10 0.09 0.06 0.05 0.04 0.02
0.01 0.02 0.03 0.04 0.06 0.07 0.07 0.08 0.08 0.07 0.05 0.03 0.01 0.00 0.00 0.00 0.00 0.00 0.00 0.00 0.00 0.00 0.01 0.03 0.05 0.08 0.10 0.09 0.09 0.07 0.04 0.03 0.03 0.04 0.07 0.11 0.13 0.12 0.09 0.08 0.07 0.04 0.02
0.02 0.03 0.03 0.04 0.05 0.07 0.08 0.09 0.08 0.08 0.07 0.06 0.03 0.01 0.01 0.00 0.00 0.00 0.00 0.00 0.00 0.00 0.01 0.03 0.06 0.11 0.15 0.15 0.13 0.10 0.08 0.06 0.05 0.06 0.08 0.11 0.13 0.13 0.10 0.09 0.08 0.05 0.02
0.03 0.03 0.04 0.05 0.05 0.06 0.08 0.09 0.10 0.10 0.08 0.06 0.05 0.03 0.01 0.01 0.00 0.00 0.00 0.00 0.00 0.00 0.01 0.04 0.08 0.14 0.23 0.23 0.22 0.18 0.11 0.08 0.08 0.07 0.08 0.08 0.08 0.08 0.08 0.07 0.06 0.04 0.02
0.03 0.03 0.03 0.04 0.04 0.05 0.07 0.08 0.10 0.11 0.10 0.07 0.05 0.03 0.02 0.01 0.01 0.01 0.00 0.00 0.00 0.00 0.01 0.04 0.09 0.18 0.30 0.36 0.32 0.25 0.15 0.10 0.10 0.07 0.07 0.07 0.07 0.07 0.07 0.05 0.04 0.03 0.02
0.03 0.02 0.02 0.03 0.05 0.05 0.06 0.06 0.07 0.09 0.11 0.09 0.06 0.04 0.02 0.01 0.01 0.01 0.00 0.00 0.00 0.00 0.01 0.03 0.09 0.22 0.36 0.43 0.41 0.33 0.23 0.16 0.12 0.09 0.08 0.08 0.07 0.07 0.07 0.05 0.03 0.02 0.01
0.04 0.02 0.02 0.04 0.04 0.05 0.06 0.07 0.07 0.07 0.09 0.08 0.06 0.05 0.03 0.02 0.02 0.01 0.01 0.00 0.00 0.00 0.01 0.03 0.09 0.22 0.36 0.45 0.46 0.39 0.30 0.21 0.12 0.08 0.08 0.08 0.06 0.05 0.05 0.04 0.03 0.02 0.01
0.04 0.02 0.02 0.03 0.03 0.02 0.03 0.04 0.06 0.06 0.07 0.06 0.04 0.04 0.03 0.02 0.02 0.02 0.01 0.00 0.00 0.01 0.01 0.04 0.10 0.20 0.34 0.44 0.46 0.38 0.30 0.22 0.12 0.07 0.07 0.06 0.05 0.04 0.03 0.03 0.02 0.02 0.01
0.04 0.02 0.02 0.02 0.01 0.01 0.01 0.02 0.03 0.04 0.05 0.04 0.03 0.03 0.03 0.02 0.02 0.01 0.01 0.00 0.00 0.01 0.01 0.04 0.11 0.20 0.32 0.43 0.45 0.39 0.31 0.22 0.11 0.06 0.05 0.04 0.03 0.02 0.02 0.01 0.01 0.01 0.00
0.04 0.02 0.02 0.01 0.00 0.00 0.00 0.01 0.01 0.02 0.02 0.03 0.02 0.02 0.02 0.02 0.01 0.01 0.01 0.01 0.02 0.02 0.03 0.06 0.11 0.19 0.29 0.38 0.41 0.36 0.30 0.19 0.07 0.03 0.03 0.02 0.01 0.01 0.01 0.01 0.00 0.00 0.00
0.03 0.03 0.02 0.00 0.00 0.00 0.00 0.01 0.01 0.01 0.01 0.02 0.02 0.02 0.01 0.01 0.01 0.02 0.03 0.05 0.05 0.05 0.06 0.08 0.12 0.18 0.25 0.31 0.33 0.28 0.24 0.14 0.04 0.01 0.01 0.01 0.00 0.00 0.00 0.00 0.00 0.00 0.00
0.03 0.02 0.02 0.00 0.00 0.00 0.00 0.00 0.01 0.01 0.01 0.01 0.01 0.01 0.01 0.01 0.02 0.05 0.08 0.09 0.07 0.07 0.08 0.10 0.12 0.16 0.20 0.22 0.21 0.17 0.13 0.07 0.02 0.01 0.00 0.00 0.00 0.00 0.00 0.00 0.00 0.00 0.00
0.02 0.02 0.01 0.00 0.00 0.00 0.00 0.00 0.00 0.01 0.01 0.01 0.01 0.01 0.02 0.02 0.04 0.07 0.09 0.09 0.07 0.07 0.08 0.10 0.10 0.12 0.13 0.13 0.11 0.08 0.05 0.03 0.01 0.00 0.00 0.00 0.00 0.00 0.00 0.00 0.00 0.00 0.00
0.01 0.01 0.01 0.00 0.00 0.00 0.00 0.00 0.00 0.01 0.01 0.01 0.01 0.01 0.02 0.03 0.04 0.06 0.07 0.06 0.06 0.06 0.07 0.08 0.08 0.09 0.08 0.06 0.04 0.03 0.02 0.01 0.00 0.00 0.00 0.00 0.00 0.00 0.00 0.00 0.00 0.00 0.00
0.02 0.01 0.01 0.01 0.00 0.01 0.00 0.00 0.00 0.00 0.01 0.01 0.02 0.03 0.03 0.03 0.04 0.05 0.06 0.06 0.06 0.06 0.06 0.05 0.04 0.04 0.03 0.02 0.01 0.01 0.00 0.00 0.00 0.00 0.00 0.00 0.00 0.00 0.00 0.00 0.00 0.00 0.00
0.02 0.01 0.01 0.01 0.01 0.00 0.00 0.00 0.00 0.00 0.00 0.01 0.02 0.02 0.02 0.02 0.04 0.05 0.05 0.05 0.05 0.05 0.04 0.03 0.02 0.01 0.01 0.00 0.00 0.00 0.00 0.00 0.00 0.00 0.00 0.00 0.00 0.00 0.00 0.00 0.00 0.00 0.00
0.02 0.01 0.01 0.01 0.00 0.00 0.00 0.00 0.00 0.00 0.00 0.00 0.01 0.01 0.01 0.02 0.02 0.02 0.03 0.04 0.04 0.04 0.03 0.02 0.01 0.00 0.00 0.00 0.00 0.00 0.00 0.00 0.00 0.00 0.00 0.00 0.00 0.00 0.00 0.00 0.00 0.00 0.00
MSLP
1010.41 1010.19 1010.03 1009.91 1009.82 1009.72 1009.62 1009.52 1009.43 1009.36 1009.30 1009.26 1009.22 1009.16 1009.08 1008.96 1008.80 1008.62 1008.45 1008.31 1008.23 1008.23 1008.32 1008.51 1008.76 1009.07 1009.39 1009.69 1009.95 1010.15 1010.30 1010.39 1010.45 1010.49 1010.54 1010.62 1010.72 1010.86 1011.03 1011.23 1011.44 1011.65 1011.85
1010.27 1009.93 1009.64 1009.39 1009.16 1008.96 1008.79 1008.66 1008.56 1008.52 1008.52 1008.54 1008.58 1008.60 1008.59 1008.53 1008.43 1008.30 1008.15 1008.02 1007.94 1007.93 1007.99 1008.14 1008.35 1008.60 1008.88 1009.15 1009.39 1009.60 1009.78 1009.93 1010.07 1010.22 1010.40 1010.61 1010.86 1011.14 1011.45 1011.76 1012.07 1012.36 1012.61
1010.18 1009.72 1009.28 1008.87 1008.50 1008.17 1007.90 1007.70 1007.58 1007.55 1007.59 1007.67 1007.78 1007.88 1007.95 1007.97 1007.94 1007.87 1007.77 1007.68 1007.62 1007.61 1007.67 1007.79 1007.96 1008.17 1008.40 1008.62 1008.83 1009.03 1009.22 1009.40 1009.61 1009.85 1010.13 1010.47 1010.85 1011.27 1011.72 1012.16 1012.58 1012.96 1013.28
1010.08 1009.50 1008.92 1008.35 1007.83 1007.37 1006.99 1006.73 1006.58 1006.54 1006.60 1006.74 1006.91 1007.08 1007.22 1007.32 1007.36 1007.35 1007.31 1007.27 1007.24 1007.26 1007.32 1007.42 1007.57 1007.74 1007.93 1008.11 1008.28 1008.44 1008.61 1008.81 1009.04 1009.34 1009.70 1010.14 1010.64 1011.19 1011.76 1012.33 1012.87 1013.35 1013.77
1009.90 1009.22 1008.52 1007.83 1007.18 1006.61 1006.15 1005.82 1005.64 1005.59 1005.67 1005.84 1006.05 1006.27 1006.47 1006.62 1006.72 1006.76 1006.78 1006.78 1006.79 1006.84 1006.91 1007.02 1007.16 1007.30 1007.45 1007.58 1007.70 1007.83 1007.96 1008.14 1008.38 1008.70 1009.11 1009.61 1010.20 1010.85 1011.53 1012.22 1012.88 1013.49 1014.01
1009.61 1008.87 1008.09 1007.32 1006.59 1005.94 1005.42 1005.05 1004.84 1004.79 1004.87 1005.05 1005.28 1005.53 1005.75 1005.93 1006.06 1006.14 1006.19 1006.23 1006.28 1006.36 1006.45 1006.57 1006.70 1006.83 1006.94 1007.03 1007.11 1007.18 1007.27 1007.41 1007.62 1007.94 1008.36 1008.91 1009.55 1010.28 1011.06 1011.86 1012.63 1013.36 1014.00
1009.21 1008.44 1007.63 1006.82 1006.05 1005.37 1004.82 1004.43 1004.22 1004.16 1004.23 1004.41 1004.64 1004.88 1005.11 1005.29 1005.42 1005.52 1005.59 1005.66 1005.74 1005.84 1005.96 1006.09 1006.22 1006.33 1006.41 1006.47 1006.49 1006.51 1006.55 1006.64 1006.82 1007.11 1007.53 1008.08 1008.77 1009.55 1010.41 1011.29 1012.17 1013.01 1013.77
1008.69 1007.94 1007.14 1006.34 1005.57 1004.90 1004.36 1003.98 1003.75 1003.69 1003.75 1003.91 1004.12 1004.34 1004.54 1004.70 1004.83 1004.92 1005.01 1005.09 1005.19 1005.31 1005.45 1005.59 1005.72 1005.82 1005.88 1005.89 1005.88 1005.84 1005.83 1005.87 1006.01 1006.27 1006.67 1007.23 1007.93 1008.76 1009.66 1010.62 1011.59 1012.52 1013.40
1008.10 1007.39 1006.63 1005.87 1005.14 1004.50 1003.99 1003.61 1003.39 1003.32 1003.36 1003.48 1003.66 1003.84 1004.01 1004.15 1004.26 1004.35 1004.44 1004.54 1004.67 1004.81 1004.96 1005.11 1005.24 1005.33 1005.36 1005.34 1005.29 1005.21 1005.16 1005.16 1005.26 1005.50 1005.89 1006.45 1007.16 1008.01 1008.95 1009.96 1010.99 1012.00 1012.95
1007.47 1006.80 1006.10 1005.39 1004.72 1004.12 1003.64 1003.28 1003.06 1002.96 1002.97 1003.06 1003.19 1003.33 1003.47 1003.59 1003.70 1003.81 1003.92 1004.04 1004.19 1004.35 1004.52 1004.68 1004.80 1004.87 1004.89 1004.84 1004.75 1004.64 1004.56 1004.54 1004.63 1004.86 1005.25 1005.81 1006.53 1007.40 1008.37 1009.40 1010.46 1011.51 1012.52
1006.82 1006.20 1005.55 1004.90 1004.27 1003.72 1003.25 1002.90 1002.66 1002.54 1002.51 1002.56 1002.65 1002.76 1002.89 1003.01 1003.14 1003.27 1003.42 1003.59 1003.77 1003.96 1004.15 1004.31 1004.42 1004.47 1004.46 1004.39 1004.27 1004.15 1004.06 1004.04 1004.13 1004.37 1004.78 1005.36 1006.11 1006.98 1007.96 1009.01 1010.07 1011.13 1012.14
1006.16 1005.58 1004.98 1004.37 1003.79 1003.26 1002.80 1002.44 1002.19 1002.03 1001.96 1001.96 1002.02 1002.12 1002.25 1002.39 1002.56 1002.74 1002.95 1003.17 1003.40 1003.62 1003.83 1003.99 1004.09 1004.12 1004.09 1003.99 1003.86 1003.74 1003.65 1003.66 1003.78 1004.06 1004.50 1005.12 1005.89 1006.78 1007.76 1008.79 1009.84 1010.86 1011.84
1005.52 1004.96 1004.39 1003.81 1003.26 1002.74 1002.29 1001.92 1001.63 1001.44 1001.33 1001.30 1001.34 1001.43 1001.58 1001.76 1001.98 1002.23 1002.50 1002.78 1003.06 1003.32 1003.54 1003.70 1003.79 1003.80 1003.74 1003.63 1003.50 1003.39 1003.33 1003.38 1003.56 1003.89 1004.39 1005.05 1005.85 1006.76 1007.73 1008.74 1009.75 1010.72 1011.63
1004.91 1004.36 1003.81 1003.26 1002.72 1002.22 1001.76 1001.38 1001.06 1000.83 1000.69 1000.64 1000.66 1000.76 1000.93 1001.16 1001.43 1001.75 1002.08 1002.42 1002.75 1003.04 1003.27 1003.42 1003.49 1003.48 1003.41 1003.29 1003.17 1003.08 1003.07 1003.18 1003.43 1003.83 1004.40 1005.11 1005.95 1006.87 1007.83 1008.81 1009.76 1010.66 1011.49
1004.32 1003.79 1003.26 1002.73 1002.22 1001.74 1001.29 1000.89 1000.57 1000.32 1000.15 1000.07 1000.09 1000.19 1000.38 1000.64 1000.96 1001.33 1001.71 1002.09 1002.45 1002.75 1002.98 1003.12 1003.18 1003.15 1003.06 1002.95 1002.85 1002.81 1002.86 1003.03 1003.36 1003.84 1004.48 1005.25 1006.12 1007.05 1008.00 1008.94 1009.83 1010.66 1011.41
1003.79 1003.27 1002.77 1002.28 1001.81 1001.36 1000.94 1000.56 1000.23 999.98 999.80 999.71 999.71 999.81 1000.01 1000.28 1000.62 1001.00 1001.40 1001.80 1002.15 1002.45 1002.66 1002.79 1002.82 1002.79 1002.71 1002.61 1002.55 1002.56 1002.67 1002.93 1003.33 1003.89 1004.59 1005.41 1006.31 1007.24 1008.18 1009.08 1009.92 1010.68 1011.35
1003.32 1002.83 1002.37 1001.94 1001.52 1001.13 1000.75 1000.41 1000.11 999.87 999.69 999.59 999.59 999.67 999.85 1000.10 1000.43 1000.79 1001.17 1001.54 1001.87 1002.14 1002.32 1002.42 1002.45 1002.41 1002.35 1002.29 1002.27 1002.34 1002.53 1002.86 1003.34 1003.96 1004.72 1005.57 1006.48 1007.41 1008.33 1009.19 1009.98 1010.69 1011.31
1002.93 1002.47 1002.07 1001.70 1001.36 1001.04 1000.74 1000.45 1000.20 999.99 999.82 999.73 999.70 999.76 999.90 1000.11 1000.38 1000.70 1001.02 1001.33 1001.61 1001.83 1001.98 1002.06 1002.07 1002.05 1002.01 1001.99 1002.04 1002.18 1002.44 1002.84 1003.38 1004.06 1004.85 1005.72 1006.63 1007.54 1008.43 1009.26 1010.02 1010.69 1011.28
1002.61 1002.20 1001.85 1001.56 1001.30 1001.07 1000.85 1000.65 1000.46 1000.29 1000.15 1000.06 1000.02 1000.04 1000.13 1000.28 1000.48 1000.71 1000.95 1001.18 1001.39 1001.55 1001.65 1001.71 1001.72 1001.72 1001.72 1001.76 1001.88 1002.09 1002.42 1002.89 1003.48 1004.19 1004.99 1005.86 1006.76 1007.65 1008.50 1009.30 1010.02 1010.67 1011.24
1002.37 1002.00 1001.71 1001.48 1001.31 1001.16 1001.03 1000.91 1000.79 1000.68 1000.58 1000.50 1000.45 1000.44 1000.48 1000.55 1000.66 1000.80 1000.95 1001.09 1001.22 1001.31 1001.38 1001.42 1001.44 1001.47 1001.52 1001.62 1001.81 1002.09 1002.49 1003.00 1003.63 1004.36 1005.16 1006.01 1006.87 1007.73 1008.54 1009.31 1010.00 1010.63 1011.20
1002.22 1001.87 1001.62 1001.45 1001.34 1001.27 1001.22 1001.18 1001.13 1001.08 1001.01 1000.96 1000.90 1000.87 1000.86 1000.86 1000.90 1000.94 1001.00 1001.06 1001.11 1001.15 1001.18 1001.21 1001.25 1001.31 1001.41 1001.58 1001.83 1002.18 1002.63 1003.18 1003.83 1004.56 1005.34 1006.16 1006.99 1007.80 1008.57 1009.30 1009.97 1010.58 1011.14
1002.16 1001.82 1001.59 1001.45 1001.38 1001.36 1001.37 1001.39 1001.40 1001.39 1001.38 1001.34 1001.30 1001.25 1001.21 1001.17 1001.14 1001.12 1001.10 1001.09 1001.08 1001.08 1001.09 1001.11 1001.16 1001.26 1001.41 1001.63 1001.94 1002.34 1002.83 1003.41 1004.07 1004.79 1005.55 1006.33 1007.11 1007.87 1008.60 1009.28 1009.92 1010.51 1011.05
1002.22 1001.87 1001.63 1001.49 1001.43 1001.43 1001.47 1001.52 1001.57 1001.60 1001.62 1001.62 1001.60 1001.55 1001.50 1001.44 1001.37 1001.31 1001.24 1001.18 1001.13 1001.10 1001.09 1001.11 1001.18 1001.30 1001.49 1001.76 1002.11 1002.55 1003.07 1003.66 1004.32 1005.02 1005.75 1006.49 1007.22 1007.93 1008.61 1009.25 1009.85 1010.41 1010.92
1002.40 1002.02 1001.75 1001.58 1001.51 1001.50 1001.53 1001.59 1001.66 1001.72 1001.76 1001.79 1001.79 1001.76 1001.72 1001.66 1001.58 1001.50 1001.41 1001.33 1001.26 1001.21 1001.19 1001.22 1001.30 1001.44 1001.65 1001.95 1002.32 1002.78 1003.31 1003.90 1004.55 1005.23 1005.92 1006.62 1007.30 1007.96 1008.59 1009.18 1009.74 1010.25 1010.73
1002.71 1002.29 1001.99 1001.78 1001.66 1001.61 1001.61 1001.65 1001.71 1001.77 1001.83 1001.88 1001.90 1001.90 1001.88 1001.83 1001.77 1001.69 1001.61 1001.52 1001.45 1001.40 1001.38 1001.41 1001.49 1001.64 1001.86 1002.17 1002.55 1003.01 1003.54 1004.12 1004.74 1005.39 1006.05 1006.70 1007.34 1007.95 1008.53 1009.07 1009.57 1010.03 1010.46
1003.13 1002.69 1002.34 1002.08 1001.91 1001.80 1001.76 1001.76 1001.78 1001.83 1001.88 1001.93 1001.97 1001.99 1002.00 1001.98 1001.94 1001.89 1001.82 1001.75 1001.69 1001.65 1001.63 1001.66 1001.75 1001.90 1002.12 1002.42 1002.79 1003.24 1003.74 1004.30 1004.89 1005.50 1006.11 1006.72 1007.31 1007.87 1008.39 1008.87 1009.32 1009.72 1010.09
Thickness
5604 5603 5600 5598 5595 5592 5589 5588 5588 5589 5591 5594 5598 5603 5608 5614 5620 5626 5633 5638 5643 5648 5652 5656 5660 5663 5666 5669 5671 5673 5675 5677 5677 5680 5682 5684 5684 5682 5680 5677 5675 5674 5673
5591 5589 5587 5584 5581 5577 5574 5574 5572 5571 5572 5574 5577 5582 5588 5594 5601 5607 5614 5622 5628 5634 5640 5644 5649 5652 5656 5660 5663 5666 5669 5672 5673 5674 5676 5677 5677 5676 5673 5669 5667 5664 5662
5577 5574 5572 5570 5567 5565 5562 5561 5559 5558 5558 5558 5559 5562 5567 5573 5580 5588 5595 5604 5612 5618 5625 5631 5637 5641 5646 5651 5655 5659 5662 5666 5668 5668 5669 5671 5671 5669 5666 5662 5658 5654 5652
5562 5558 5555 5554 5553 5553 5551 5549 5547 5546 5545 5546 5546 5547 5551 5555 5561 5569 5576 5585 5594 5603 5610 5617 5624 5630 5636 5641 5646 5650 5654 5658 5661 5663 5664 5665 5665 5663 5661 5655 5649 5645 5642
5548 5544 5540 5538 5537 5537 5536 5535 5535 5535 5536 5536 5536 5536 5538 5541 5546 5552 5559 5567 5576 5585 5594 5603 5610 5618 5625 5631 5637 5642 5646 5651 5654 5657 5659 5660 5660 5658 5656 5651 5645 5638 5633
5536 5531 5527 5523 5521 5520 5521 5522 5522 5523 5524 5525 5526 5528 5529 5533 5537 5541 5545 5551 5559 5568 5577 5587 5596 5604 5613 5621 5628 5635 5640 5645 5650 5653 5656 5658 5658 5657 5653 5647 5641 5634 5628
5525 5519 5514 5509 5506 5504 5505 5507 5509 5510 5512 5514 5517 5519 5522 5525 5528 5532 5536 5539 5545 5553 5561 5570 5582 5593 5601 5610 5618 5624 5632 5640 5646 5651 5654 5657 5657 5656 5651 5643 5638 5634 5629
5517 5509 5503 5497 5493 5490 5488 5490 5492 5495 5498 5502 5507 5511 5514 5519 5522 5524 5528 5532 5536 5541 5548 5557 5567 5578 5586 5597 5606 5615 5625 5633 5639 5645 5651 5654 5655 5654 5651 5645 5636 5626 5620
5509 5500 5492 5485 5479 5476 5474 5475 5477 5480 5485 5490 5496 5501 5506 5511 5515 5518 5521 5525 5529 5534 5540 5546 5554 5565 5576 5586 5597 5608 5617 5625 5632 5639 5644 5647 5649 5648 5645 5637 5629 5624 5616
5501 5492 5484 5475 5469 5466 5464 5464 5466 5469 5474 5479 5485 5492 5498 5503 5507 5511 5515 5519 5523 5529 5533 5538 5545 5554 5564 5574 5587 5600 5610 5620 5626 5632 5636 5639 5641 5642 5641 5639 5634 5626 5618
5496 5487 5479 5471 5464 5461 5459 5458 5459 5462 5466 5471 5477 5484 5489 5495 5501 5505 5510 5513 5519 5524 5528 5532 5537 5544 5553 5563 5576 5591 5604 5612 5619 5626 5631 5634 5635 5635 5633 5632 5631 5628 5622
5494 5485 5477 5470 5463 5459 5456 5455 5455 5457 5460 5465 5470 5476 5482 5488 5494 5500 5505 5511 5516 5521 5525 5528 5532 5537 5544 5553 5566 5581 5592 5602 5612 5620 5626 5629 5631 5630 5628 5625 5623 5621 5619
5495 5486 5478 5470 5463 5457 5454 5452 5453 5454 5456 5460 5465 5471 5477 5484 5490 5496 5502 5508 5513 5517 5522 5525 5528 5531 5537 5546 5558 5571 5583 5596 5608 5616 5622 5625 5626 5625 5620 5616 5612 5610 5608
5496 5488 5480 5472 5466 5460 5455 5453 5453 5453 5455 5458 5463 5468 5473 5479 5486 5492 5499 5505 5510 5514 5517 5520 5523 5526 5532 5540 5552 5564 5577 5592 5603 5611 5615 5616 5616 5615 5613 5611 5608 5605 5600
5499 5491 5483 5476 5469 5465 5460 5457 5456 5456 5457 5459 5463 5467 5472 5478 5485 5490 5496 5502 5507 5511 5514 5516 5519 5523 5529 5537 5548 5560 5572 5585 5595 5603 5606 5608 5609 5608 5606 5604 5603 5600 5598
5503 5495 5487 5480 5474 5469 5465 5464 5462 5460 5460 5460 5462 5466 5472 5477 5483 5488 5493 5498 5502 5506 5510 5515 5517 5521 5527 5535 5547 5557 5568 5580 5590 5597 5601 5603 5603 5602 5599 5597 5596 5595 5593
5506 5498 5491 5485 5479 5474 5470 5468 5467 5466 5464 5463 5464 5467 5471 5477 5481 5486 5490 5494 5497 5501 5508 5513 5516 5520 5526 5533 5543 5554 5565 5575 5584 5590 5595 5596 5596 5595 5593 5592 5591 5590 5588
5510 5503 5497 5490 5483 5478 5475 5472 5471 5470 5470 5468 5466 5468 5472 5476 5480 5484 5487 5491 5495 5499 5506 5511 5515 5519 5524 5531 5541 5551 5560 5569 5576 5583 5587 5588 5589 5589 5588 5587 5587 5586 5583
5516 5508 5502 5495 5489 5483 5480 5477 5475 5473 5472 5470 5470 5470 5472 5475 5478 5481 5486 5493 5498 5502 5506 5510 5514 5519 5524 5531 5541 5550 5558 5565 5571 5576 5580 5581 5583 5584 5583 5582 5582 5578 5579
5521 5516 5509 5501 5495 5490 5486 5482 5479 5477 5475 5474 5474 5474 5475 5479 5481 5483 5488 5493 5498 5503 5507 5511 5514 5519 5525 5531 5540 5548 5555 5561 5566 5571 5574 5576 5578 5579 5579 5578 5577 5576 5575
5527 5520 5515 5507 5501 5495 5491 5487 5483 5480 5478 5477 5476 5476 5478 5482 5484 5487 5490 5494 5498 5502 5507 5512 5516 5521 5526 5532 5540 5547 5554 5559 5563 5568 5571 5572 5573 5574 5574 5573 5573 5572 5571
5532 5526 5520 5513 5507 5501 5497 5493 5489 5485 5483 5480 5479 5479 5479 5483 5486 5489 5492 5496 5500 5504 5508 5514 5520 5525 5530 5537 5543 5549 5554 5558 5562 5565 5568 5569 5569 5569 5569 5569 5568 5567 5567
5539 5533 5527 5521 5515 5508 5504 5499 5495 5491 5488 5485 5484 5484 5485 5487 5489 5491 5495 5499 5502 5507 5511 5517 5523 5528 5534 5540 5546 5551 5556 5559 5562 5565 5566 5566 5566 5566 5566 5565 5564 5563 5563
5543 5539 5534 5528 5523 5517 5511 5507 5502 5498 5495 5492 5491 5490 5490 5491 5493 5496 5499 5503 5507 5511 5516 5522 5528 5533 5538 5543 5548 5553 5558 5561 5563 5564 5565 5565 5564 5563 5563 5562 5562 5562 5562
5546 5543 5539 5534 5530 5524 5519 5515 5510 5507 5503 5500 5499 5498 5497 5497 5499 5502 5505 5509 5512 5517 5522 5528 5534 5539 5543 5548 5552 5556 5558 5560 5562 5563 5563 5563 5562 5561 5561 5561 5560 5560 5559
5546 5544 5542 5539 5535 5531 5527 5523 5519 5515 5512 5510 5508 5507 5507 5507 5508 5510 5512 5516 5520 5525 5529 5535 5540 5544 5549 5552 5555 5556 5557 5559 5560 5561 5562 5561 5560 5560 5560 5560 5559 5559 5558